Weather History for Copper Harbor, MI

Change the Weather History Date:

Wednesday, May 15, 2013

  Actual Average Record
Temperature  
Mean Temperature 58 °F -  
Max Temperature 70 °F 53 °F 75 °F (1998)
Min Temperature 48 °F 37 °F 32 °F (1997)
Degree Days  
Heating Degree Days 6    
Growing Degree Days 8 (Base 50)    
Moisture  
Dew Point 38 °F    
Average Humidity 49    
Maximum Humidity 71    
Minimum Humidity 29    
Precipitation  
Precipitation 0.00 in - - ()
Sea Level Pressure  
Sea Level Pressure 29.61 in    
Wind  
Wind Speed 14 mph (NNW)    
Max Wind Speed 22 mph    
Max Gust Speed 37 mph    
Averages and records for this station are not official NWS values.
T = Trace of Precipitation, MM = Missing Value Source: NWS Daily Summary

Daily Weather History Graph

Daily Weather History Graph

Search for Another Location

Airport:

Trip Planner

Search our weather history database for the weather conditions in past years. The results will help you decide how hot, cold, wet, or windy it might be!

Date:

Astronomy

May. 15, 2013 Rise Set
Actual Time 6:14 AM EDT 9:22 PM EDT
Civil Twilight 5:37 AM EDT 9:58 PM EDT
Nautical Twilight 4:50 AM EDT 10:46 PM EDT
Astronomical Twilight 3:51 AM EDT 11:45 PM EDT
Moon 10:53 AM EDT (5/15) 1:05 AM EDT (5/15)
Length of Visible Light 16h 21m
Length of Day
15h 07m
Waxing Crescent, 26% of the Moon is Illuminated
May 15
Waxing Crescent
May 18
First Quarter
May 25
Full
May 31
Last Quarter
Jun 8
New

Hourly Weather History & Observations

Time (EDT) Temp. Dew Point Humidity Pressure Visibility Wind Dir Wind Speed Gust Speed Precip Events Conditions
12:51 AM 48.0 °F 37.9 °F 68% 29.39 in - WSW 13.8 mph 24.2 mph N/A   Unknown
1:51 AM 57.9 °F 41.0 °F 53% 29.40 in - NNW 11.5 mph 19.6 mph N/A   Unknown
2:51 AM 54.0 °F 39.0 °F 57% 29.42 in - NNW 10.4 mph 17.3 mph N/A   Unknown
3:51 AM 52.0 °F 37.0 °F 57% 29.47 in - NNW 13.8 mph 23.0 mph N/A   Unknown
4:51 AM 50.0 °F 37.9 °F 63% 29.51 in - NNW 15.0 mph 23.0 mph N/A   Unknown
5:51 AM 50.0 °F 41.0 °F 71% 29.54 in - NNW 16.1 mph 27.6 mph N/A   Unknown
6:51 AM 53.1 °F 42.1 °F 66% 29.57 in - NNW 12.7 mph 28.8 mph N/A   Unknown
7:51 AM 55.0 °F 43.0 °F 64% 29.59 in - NNW 15.0 mph 32.2 mph N/A   Unknown
8:51 AM 57.0 °F 42.1 °F 57% 29.60 in - NNW 10.4 mph 20.7 mph N/A   Unknown
9:51 AM 57.0 °F 42.1 °F 57% 29.62 in - NNW 17.3 mph 32.2 mph N/A   Unknown
10:51 AM 59.0 °F 42.1 °F 53% 29.63 in - NNW 20.7 mph 31.1 mph N/A   Unknown
11:51 AM 61.0 °F 41.0 °F 48% 29.64 in - NNW 19.6 mph 34.5 mph N/A   Unknown
12:51 PM 63.0 °F 39.9 °F 43% 29.65 in - NNW 21.9 mph 36.8 mph N/A   Unknown
1:51 PM 64.9 °F 37.9 °F 37% 29.65 in - NNW 17.3 mph 26.5 mph N/A   Unknown
2:51 PM 66.9 °F 37.9 °F 34% 29.65 in - NNW 16.1 mph 33.4 mph N/A   Unknown
3:51 PM 68.0 °F 37.0 °F 32% 29.65 in - NNW 19.6 mph 29.9 mph N/A   Unknown
4:51 PM 69.1 °F 35.1 °F 29% 29.65 in - NNW 20.7 mph 34.5 mph N/A   Unknown
5:51 PM 69.1 °F 36.0 °F 30% 29.65 in - NNW 15.0 mph 29.9 mph N/A   Unknown
6:51 PM 66.9 °F 35.1 °F 31% 29.66 in - North 18.4 mph 27.6 mph N/A   Unknown
7:51 PM 66.0 °F 34.0 °F 30% 29.67 in - NW 12.7 mph 24.2 mph N/A   Unknown
8:51 PM 62.1 °F 34.0 °F 35% 29.69 in - WNW 6.9 mph - N/A   Unknown
9:51 PM 61.0 °F 34.0 °F 36% 29.71 in - WNW 5.8 mph - N/A   Unknown
10:51 PM 48.9 °F 37.0 °F 64% 29.77 in - North 11.5 mph - N/A   Unknown
11:51 PM 48.9 °F 36.0 °F 61% 29.77 in - North 3.5 mph - N/A   Unknown